Tracking 20241 objects as of 28-Jan-2020
HD Live streaming from Space Station
objects crossing your sky now

METEOR 1-25

Track METEOR 1-25 now!
10-day predictions
METEOR 1-25 is classified as:


NORAD ID: 8845
Int'l Code: 1976-043A
Perigee: 832.1 km
Apogee: 890.8 km
Inclination: 81.3 °
Period: 102.0 minutes
Semi major axis: 7232 km
RCS: 4.2593 m2 (large)
Launch date: May 15, 1976
Source: Commonwealth of Independent States (former USSR) (CIS)
Launch site: PLESETSK MISSILE AND SPACE COMPLEX (PKMTR)
aabbcc
Your satellite tracking list
Your tracking list is empty




NASA's NSSDC Master Catalog

Two Line Element Set (TLE):
1  8845U 76043A   20027.58729923 +.00000022 +00000-0 +49733-5 0  9996
2  8845 081.2599 067.4730 0040622 075.0025 285.5638 14.11481097395832
Source of the keplerian elements: AFSPC